NKS9138 KOAK-KVCV

Flight info

Callsign NKS9138
Flight time 1h 6m
Altitude 30000
Route CNDEL5 SUSEY EBAYE VULLU
Aircraft A20N/M-SDE2E3FGHIRWXY/L

Departure

Time 2026-04-23 00:56
Airport San Francisco Bay Oakland International Airport (KOAK)

Arrival

Time 2026-04-23 02:02
Airport Southern California Logistics Airport (KVCV)
Time Latitude Longitude Altitude Speed Heading
2026-04-23 00:44 37.71128 -122.21649 12 ft 0 kts 141°
2026-04-23 00:49 37.71134 -122.21656 12 ft 1 kts 141°
2026-04-23 00:49 37.71146 -122.21667 12 ft 2 kts 141°
2026-04-23 00:50 37.71157 -122.21679 12 ft 2 kts 141°
2026-04-23 00:50 37.71169 -122.21691 12 ft 2 kts 141°
2026-04-23 00:50 37.71182 -122.21701 12 ft 2 kts 176°
2026-04-23 00:50 37.71197 -122.21698 12 ft 1 kts 211°
2026-04-23 00:51 37.71202 -122.21693 12 ft 1 kts 219°
2026-04-23 00:51 37.71204 -122.21691 12 ft 0 kts 218°
2026-04-23 00:52 37.71180 -122.21713 12 ft 9 kts 217°
2026-04-23 00:52 37.71106 -122.21783 12 ft 15 kts 217°
2026-04-23 00:53 37.71008 -122.21802 12 ft 16 kts 139°
2026-04-23 00:53 37.70937 -122.21687 12 ft 17 kts 127°
2026-04-23 00:53 37.70840 -122.21618 12 ft 17 kts 206°
2026-04-23 00:53 37.70744 -122.21719 12 ft 18 kts 221°
2026-04-23 00:54 37.70628 -122.21764 12 ft 19 kts 154°
2026-04-23 00:54 37.70539 -122.21637 12 ft 19 kts 130°
2026-04-23 00:54 37.70449 -122.21503 12 ft 20 kts 129°
2026-04-23 00:54 37.70355 -122.21391 12 ft 6 kts 173°
2026-04-23 00:55 37.70304 -122.21370 12 ft 10 kts 160°
2026-04-23 00:55 37.70211 -122.21368 12 ft 17 kts 211°
2026-04-23 00:55 37.70169 -122.21455 12 ft 8 kts 307°
2026-04-23 00:55 37.70346 -122.21719 12 ft 97 kts 309°
2026-04-23 00:56 37.71040 -122.22757 32 ft 204 kts 309°
2026-04-23 00:56 37.71820 -122.23853 2166 ft 171 kts 311°
2026-04-23 00:56 37.72495 -122.24805 3987 ft 152 kts 313°
2026-04-23 00:56 37.73168 -122.25762 5056 ft 171 kts 314°
2026-04-23 00:57 37.74036 -122.26990 5888 ft 210 kts 313°
2026-04-23 00:57 37.75070 -122.28577 6694 ft 253 kts 311°
2026-04-23 00:57 37.76182 -122.30324 8143 ft 265 kts 311°
2026-04-23 00:57 37.77187 -122.31872 9455 ft 270 kts 312°
2026-04-23 00:58 37.78357 -122.33648 10943 ft 272 kts 310°
2026-04-23 00:58 37.79075 -122.35197 12080 ft 273 kts 291°
2026-04-23 00:58 37.79271 -122.37902 13837 ft 268 kts 259°
2026-04-23 00:58 37.78577 -122.39973 15223 ft 262 kts 233°
2026-04-23 00:59 37.77343 -122.41431 16285 ft 262 kts 207°
2026-04-23 00:59 37.75625 -122.42178 17446 ft 259 kts 187°
2026-04-23 00:59 37.74070 -122.42477 18327 ft 263 kts 184°
2026-04-23 00:59 37.72098 -122.42795 19276 ft 273 kts 184°
2026-04-23 01:00 37.70205 -122.43119 20155 ft 282 kts 185°
2026-04-23 01:00 37.68247 -122.43483 21039 ft 289 kts 185°
2026-04-23 01:00 37.66263 -122.43873 21914 ft 296 kts 185°
2026-04-23 01:00 37.64217 -122.44288 22797 ft 302 kts 185°
2026-04-23 01:01 37.62159 -122.44709 23670 ft 306 kts 185°
2026-04-23 01:01 37.60039 -122.45146 24557 ft 309 kts 185°
2026-04-23 01:01 37.57930 -122.45579 25432 ft 311 kts 185°
2026-04-23 01:01 37.55800 -122.46017 26310 ft 312 kts 185°
2026-04-23 01:02 37.53692 -122.46449 27164 ft 312 kts 185°
2026-04-23 01:02 37.51593 -122.46868 27897 ft 314 kts 182°
2026-04-23 01:02 37.49579 -122.46783 28591 ft 306 kts 160°
2026-04-23 01:02 37.47740 -122.45731 29324 ft 294 kts 137°
2026-04-23 01:03 37.46280 -122.43980 29911 ft 295 kts 128°
2026-04-23 01:03 37.44875 -122.42012 30197 ft 311 kts 127°
2026-04-23 01:03 37.43454 -122.39999 30230 ft 330 kts 128°
2026-04-23 01:03 37.41873 -122.37791 30238 ft 350 kts 128°
2026-04-23 01:04 37.40190 -122.35469 30239 ft 369 kts 129°
2026-04-23 01:04 37.38402 -122.33023 30240 ft 387 kts 129°
2026-04-23 01:04 37.34613 -122.27874 30235 ft 409 kts 129°
2026-04-23 01:05 37.30726 -122.22615 30231 ft 411 kts 129°
2026-04-23 01:05 37.26841 -122.17364 30229 ft 411 kts 129°
2026-04-23 01:06 37.22966 -122.12133 30222 ft 411 kts 129°
2026-04-23 01:06 37.19061 -122.06870 30221 ft 411 kts 129°
2026-04-23 01:07 37.15164 -122.01626 30220 ft 411 kts 129°
2026-04-23 01:07 37.11259 -121.96378 30221 ft 411 kts 129°
2026-04-23 01:08 37.07365 -121.91152 30224 ft 411 kts 129°
2026-04-23 01:08 37.03469 -121.85936 30226 ft 411 kts 129°
2026-04-23 01:09 36.99538 -121.80678 30227 ft 412 kts 129°
2026-04-23 01:09 36.95640 -121.75476 30228 ft 412 kts 129°
2026-04-23 01:10 36.91718 -121.70246 30228 ft 413 kts 129°
2026-04-23 01:10 36.87779 -121.65021 30227 ft 412 kts 129°
2026-04-23 01:11 36.83839 -121.59825 30227 ft 412 kts 129°
2026-04-23 01:11 36.79884 -121.54593 30226 ft 413 kts 129°
2026-04-23 01:12 36.75943 -121.49381 30224 ft 412 kts 129°
2026-04-23 01:12 36.72030 -121.44209 30222 ft 413 kts 129°
2026-04-23 01:13 36.68082 -121.38998 30219 ft 413 kts 129°
2026-04-23 01:13 36.64157 -121.33822 30221 ft 413 kts 129°
2026-04-23 01:14 36.60248 -121.28654 30219 ft 413 kts 129°
2026-04-23 01:14 36.56313 -121.23468 30220 ft 412 kts 129°
2026-04-23 01:15 36.52366 -121.18282 30220 ft 413 kts 129°
2026-04-23 01:15 36.48423 -121.13109 30220 ft 412 kts 130°
2026-04-23 01:16 36.44461 -121.07927 30219 ft 412 kts 130°
2026-04-23 01:16 36.40671 -121.02644 30217 ft 412 kts 128°
2026-04-23 01:17 36.36939 -120.97277 30210 ft 412 kts 128°
2026-04-23 01:17 36.33190 -120.91893 30203 ft 412 kts 128°
2026-04-23 01:18 36.29439 -120.86516 30193 ft 413 kts 128°
2026-04-23 01:18 36.25684 -120.81138 30187 ft 413 kts 128°
2026-04-23 01:19 36.21907 -120.75742 30184 ft 413 kts 128°
2026-04-23 01:19 36.18148 -120.70374 30181 ft 413 kts 128°
2026-04-23 01:20 36.14385 -120.65013 30183 ft 412 kts 128°
2026-04-23 01:20 36.10628 -120.59667 30183 ft 412 kts 128°
2026-04-23 01:21 36.06868 -120.54326 30183 ft 412 kts 128°
2026-04-23 01:21 36.03107 -120.48992 30183 ft 412 kts 128°
2026-04-23 01:22 35.99316 -120.43621 30182 ft 413 kts 128°
2026-04-23 01:22 35.95557 -120.38305 30181 ft 413 kts 128°
2026-04-23 01:23 35.91775 -120.32964 30178 ft 413 kts 129°
2026-04-23 01:23 35.88167 -120.27454 30178 ft 411 kts 123°
2026-04-23 01:24 35.85234 -120.21358 30179 ft 411 kts 114°
2026-04-23 01:24 35.82919 -120.14934 30179 ft 411 kts 112°
2026-04-23 01:25 35.80658 -120.08469 30177 ft 411 kts 112°
2026-04-23 01:25 35.78390 -120.02003 30174 ft 411 kts 112°
2026-04-23 01:26 35.76109 -119.95525 30172 ft 411 kts 112°
2026-04-23 01:26 35.73836 -119.89084 30170 ft 411 kts 112°
2026-04-23 01:27 35.71533 -119.82572 30167 ft 411 kts 112°
2026-04-23 01:27 35.69246 -119.76122 30004 ft 412 kts 112°
2026-04-23 01:28 35.68100 -119.72895 29754 ft 412 kts 112°
2026-04-23 01:28 35.66950 -119.69661 29502 ft 412 kts 112°
2026-04-23 01:28 35.65810 -119.66455 29254 ft 411 kts 112°
2026-04-23 01:28 35.64660 -119.63226 29158 ft 410 kts 112°
2026-04-23 01:29 35.62387 -119.56857 29148 ft 410 kts 112°
2026-04-23 01:29 35.60081 -119.50407 29145 ft 410 kts 112°
2026-04-23 01:30 35.57790 -119.44008 29145 ft 410 kts 112°
2026-04-23 01:30 35.55494 -119.37609 29144 ft 410 kts 112°
2026-04-23 01:31 35.53198 -119.31213 29146 ft 410 kts 112°
2026-04-23 01:31 35.50889 -119.24787 29146 ft 410 kts 112°
2026-04-23 01:32 35.48606 -119.18452 29144 ft 410 kts 112°
2026-04-23 01:32 35.46170 -119.12116 29130 ft 412 kts 122°
2026-04-23 01:33 35.42291 -119.06884 29141 ft 415 kts 132°
2026-04-23 01:33 35.38293 -119.01888 29139 ft 415 kts 132°
2026-04-23 01:34 35.34305 -118.96817 29137 ft 415 kts 132°
2026-04-23 01:34 35.30314 -118.91701 28844 ft 413 kts 133°
2026-04-23 01:35 35.28361 -118.89188 28596 ft 412 kts 133°
2026-04-23 01:35 35.26379 -118.86636 28345 ft 412 kts 133°
2026-04-23 01:35 35.24402 -118.84094 28090 ft 410 kts 133°
2026-04-23 01:35 35.22442 -118.81574 27840 ft 410 kts 133°
2026-04-23 01:36 35.20489 -118.79067 27592 ft 409 kts 133°
2026-04-23 01:36 35.18533 -118.76562 27339 ft 408 kts 133°
2026-04-23 01:36 35.16622 -118.74115 27094 ft 406 kts 133°
2026-04-23 01:36 35.14668 -118.71615 26844 ft 404 kts 133°
2026-04-23 01:37 35.12725 -118.69132 26590 ft 402 kts 133°
2026-04-23 01:37 35.10811 -118.66688 26341 ft 401 kts 133°
2026-04-23 01:37 35.08862 -118.64201 26088 ft 399 kts 133°
2026-04-23 01:37 35.06952 -118.61764 25837 ft 397 kts 133°
2026-04-23 01:38 35.05045 -118.59331 25585 ft 396 kts 133°
2026-04-23 01:38 35.03145 -118.56908 25336 ft 394 kts 133°
2026-04-23 01:38 35.01258 -118.54504 25086 ft 391 kts 133°
2026-04-23 01:38 34.99404 -118.52145 24840 ft 388 kts 133°
2026-04-23 01:39 34.97521 -118.49749 24587 ft 385 kts 133°
2026-04-23 01:39 34.95687 -118.47417 24338 ft 383 kts 134°
2026-04-23 01:39 34.93830 -118.45058 24085 ft 380 kts 134°
2026-04-23 01:39 34.92033 -118.42777 23839 ft 377 kts 134°
2026-04-23 01:40 34.90208 -118.40462 23587 ft 375 kts 134°
2026-04-23 01:40 34.88399 -118.38178 23337 ft 372 kts 135°
2026-04-23 01:40 34.86597 -118.35915 23086 ft 371 kts 135°
2026-04-23 01:40 34.84803 -118.33659 22836 ft 369 kts 135°
2026-04-23 01:41 34.83009 -118.31387 22583 ft 368 kts 135°
2026-04-23 01:41 34.81238 -118.29144 22332 ft 366 kts 135°
2026-04-23 01:41 34.79479 -118.26918 22082 ft 365 kts 135°
2026-04-23 01:41 34.77730 -118.24708 21833 ft 363 kts 135°
2026-04-23 01:42 34.75987 -118.22508 21584 ft 362 kts 135°
2026-04-23 01:42 34.74234 -118.20297 21332 ft 360 kts 135°
2026-04-23 01:42 34.72487 -118.18094 21080 ft 359 kts 135°
2026-04-23 01:42 34.70757 -118.15914 20829 ft 357 kts 135°
2026-04-23 01:43 34.69042 -118.13757 20580 ft 356 kts 135°
2026-04-23 01:43 34.67327 -118.11601 20305 ft 354 kts 135°
2026-04-23 01:43 34.65615 -118.09445 19988 ft 352 kts 134°
2026-04-23 01:43 34.64224 -118.07021 19559 ft 352 kts 116°
2026-04-23 01:44 34.63592 -118.04166 19052 ft 354 kts 97°
2026-04-23 01:44 34.63753 -118.01175 18533 ft 355 kts 84°
2026-04-23 01:44 34.64148 -117.98240 18009 ft 353 kts 83°
2026-04-23 01:44 34.64567 -117.95280 17530 ft 348 kts 83°
2026-04-23 01:45 34.64906 -117.92390 17076 ft 343 kts 90°
2026-04-23 01:45 34.64859 -117.89544 16632 ft 338 kts 96°
2026-04-23 01:45 34.64684 -117.86720 16184 ft 336 kts 97°
2026-04-23 01:45 34.64482 -117.83875 15727 ft 333 kts 97°
2026-04-23 01:46 34.64281 -117.81149 15286 ft 330 kts 97°
2026-04-23 01:46 34.64068 -117.78301 14822 ft 328 kts 97°
2026-04-23 01:46 34.63858 -117.75545 14369 ft 325 kts 97°
2026-04-23 01:46 34.63648 -117.72830 13919 ft 322 kts 97°
2026-04-23 01:47 34.63435 -117.70127 13468 ft 320 kts 97°
2026-04-23 01:47 34.63218 -117.67418 13012 ft 318 kts 97°
2026-04-23 01:47 34.63002 -117.64769 12562 ft 315 kts 97°
2026-04-23 01:47 34.62782 -117.62125 12110 ft 313 kts 97°
2026-04-23 01:48 34.62562 -117.59492 11656 ft 311 kts 97°
2026-04-23 01:48 34.62355 -117.56873 11203 ft 310 kts 97°
2026-04-23 01:48 34.62162 -117.54239 10746 ft 309 kts 97°
2026-04-23 01:48 34.61990 -117.51665 10299 ft 309 kts 97°
2026-04-23 01:49 34.61831 -117.49073 9848 ft 308 kts 97°
2026-04-23 01:49 34.61686 -117.46506 9398 ft 304 kts 97°
2026-04-23 01:49 34.61559 -117.43981 9057 ft 298 kts 97°
2026-04-23 01:49 34.61385 -117.41577 9000 ft 281 kts 100°
2026-04-23 01:50 34.61143 -117.39294 8995 ft 264 kts 102°
2026-04-23 01:50 34.60910 -117.37138 8990 ft 248 kts 101°
2026-04-23 01:50 34.60691 -117.35102 8988 ft 233 kts 101°
2026-04-23 01:50 34.60495 -117.33200 8987 ft 218 kts 102°
2026-04-23 01:51 34.60323 -117.31426 8987 ft 205 kts 102°
2026-04-23 01:51 34.60162 -117.29709 8990 ft 203 kts 102°
2026-04-23 01:51 34.60002 -117.27978 8994 ft 202 kts 102°
2026-04-23 01:51 34.59844 -117.26278 8994 ft 203 kts 102°
2026-04-23 01:52 34.59688 -117.24582 8994 ft 202 kts 102°
2026-04-23 01:52 34.59532 -117.22858 8995 ft 203 kts 102°
2026-04-23 01:52 34.59378 -117.21165 8994 ft 202 kts 102°
2026-04-23 01:52 34.59223 -117.19473 8995 ft 202 kts 102°
2026-04-23 01:53 34.59066 -117.17759 8995 ft 203 kts 102°
2026-04-23 01:53 34.58908 -117.16062 8994 ft 202 kts 102°
2026-04-23 01:53 34.58747 -117.14339 8995 ft 202 kts 102°
2026-04-23 01:53 34.58593 -117.12682 8995 ft 202 kts 102°
2026-04-23 01:54 34.58442 -117.10975 8993 ft 204 kts 98°
2026-04-23 01:54 34.58775 -117.09280 8982 ft 218 kts 59°
2026-04-23 01:54 34.60044 -117.08193 8990 ft 232 kts 16°
2026-04-23 01:54 34.61637 -117.08280 8990 ft 235 kts 337°
2026-04-23 01:55 34.63012 -117.09328 8995 ft 233 kts 320°
2026-04-23 01:55 34.64275 -117.10561 8989 ft 232 kts 319°
2026-04-23 01:55 34.65555 -117.11802 8987 ft 233 kts 320°
2026-04-23 01:55 34.66817 -117.12971 8887 ft 229 kts 321°
2026-04-23 01:56 34.68102 -117.14115 8581 ft 230 kts 321°
2026-04-23 01:56 34.69394 -117.15245 8316 ft 229 kts 321°
2026-04-23 01:56 34.70707 -117.16385 8061 ft 228 kts 321°
2026-04-23 01:56 34.72001 -117.17509 8004 ft 227 kts 321°
2026-04-23 01:57 34.73176 -117.18750 7986 ft 221 kts 298°
2026-04-23 01:57 34.73539 -117.20468 7980 ft 204 kts 254°
2026-04-23 01:57 34.72946 -117.21957 7989 ft 188 kts 223°
2026-04-23 01:57 34.72047 -117.23083 7991 ft 181 kts 220°
2026-04-23 01:58 34.71159 -117.24174 7994 ft 180 kts 221°
2026-04-23 01:58 34.70290 -117.25278 7992 ft 180 kts 222°
2026-04-23 01:58 34.69424 -117.26392 7990 ft 179 kts 221°
2026-04-23 01:58 34.68574 -117.27380 7822 ft 159 kts 218°
2026-04-23 01:59 34.67762 -117.28253 7407 ft 153 kts 217°
2026-04-23 01:59 34.66980 -117.29087 6983 ft 148 kts 218°
2026-04-23 01:59 34.66244 -117.29874 6553 ft 146 kts 219°
2026-04-23 01:59 34.65497 -117.30682 6153 ft 139 kts 220°
2026-04-23 02:00 34.64806 -117.31435 5850 ft 128 kts 220°
2026-04-23 02:00 34.64166 -117.32132 5489 ft 124 kts 221°
2026-04-23 02:00 34.63618 -117.32726 5151 ft 122 kts 221°
2026-04-23 02:00 34.63006 -117.33387 4767 ft 122 kts 224°
2026-04-23 02:01 34.62472 -117.33974 4434 ft 120 kts 222°
2026-04-23 02:01 34.61832 -117.34571 4043 ft 120 kts 223°
2026-04-23 02:01 34.61235 -117.35252 3657 ft 119 kts 228°
2026-04-23 02:01 34.60629 -117.35949 3232 ft 120 kts 228°
2026-04-23 02:02 34.60101 -117.36594 2896 ft 114 kts 230°
2026-04-23 02:02 34.59626 -117.37162 2861 ft 87 kts 229°
2026-04-23 02:02 34.59452 -117.37279 2863 ft 14 kts 174°
2026-04-23 02:02 34.59361 -117.37273 2865 ft 11 kts 180°
2026-04-23 02:03 34.59295 -117.37283 2866 ft 9 kts 202°
2026-04-23 02:03 34.59249 -117.37331 2868 ft 11 kts 226°
2026-04-23 02:03 34.59152 -117.37450 2870 ft 34 kts 225°
2026-04-23 02:03 34.58981 -117.37647 2873 ft 31 kts 224°
2026-04-23 02:04 34.58838 -117.37817 2876 ft 26 kts 221°
2026-04-23 02:04 34.58721 -117.37955 2879 ft 23 kts 225°
2026-04-23 02:04 34.58622 -117.38076 2879 ft 20 kts 225°
2026-04-23 02:04 34.58519 -117.38052 2882 ft 15 kts 138°
2026-04-23 02:05 34.58454 -117.38019 2884 ft 0 kts 183°